Retour au catalogue

HUCSat

ActifRadio amateurVLEO
NORAD 69794·PAYLOAD·🇺🇸 United States

Lancé Nov 20, 1998 depuis Baikonur Cosmodrome

Loading…

Prochains Passages (prochaines 24 heures)

TLE

FraisSource: Space-Track

Époque: Sep 14, 2026, 07:02 UTC

1 69794U 98067YJ  26257.29346713  .00031245  00000-0  48585-3 0  9990
2 69794  51.6311 217.8392 0008244 149.0596 211.0882 15.53610484 11481

Suivez HUCSat en temps réel avec AllMySat

Download on the App Store